Regional Weather Roundup
Issued by NWS State College, PA

Home | Current Version | Previous Version | Text Only | Print | Product List | Glossary On
Versions: 1 2 3 4 5 6 7 8 9 10 11 12 13 14 15 16 17 18 19 20 21 22 23 24 25 26 27 28 29 30 31 32 33 34 35 36 37 38 39 40 41 42 43 44 45 46 47 48 49 50
000
ASUS41 KCTP 261410
RWRCTP

REGIONAL WEATHER ROUNDUP
NATIONAL WEATHER SERVICE STATE COLLEGE PA
1000 AM EDT THU APR 26 2018

Note: "fair" indicates few or no clouds below 12,000 feet with no
significant weather and/or obstructions to visibility.

* = STATION THAT DOES NOT REPORT PRECIPITATION /E.G. RAIN...SNOW...ETC/
    THUNDER OR FOG.

PAZ002>004-007>009-013>016-020>023-029>032-261500-
WESTERN PENNSYLVANIA

CITY           SKY/WX    TMP DP  RH WIND       PRES   REMARKS
ERIE           FAIR      44  36  73 W9G18     29.94S
MEADVILLE      FAIR      43  35  73 NW7       29.92S
FRANKLIN*      FAIR      42  34  73 NW6       29.92S
NEW CASTLE     FAIR      45  36  70 VRB7      29.94F
BEAVER COUNTY  SUNNY     45  34  65 N5        29.93S
BUTLER*        FAIR      45  34  65 VRB3      29.93F
PITTSBURGH INT FAIR      45  34  65 SW5       29.93S
PITTSBURGH     FAIR      45  36  70 W6        29.93S
INDIANA*       MOSUNNY   45  36  70 VRB6      29.95S
LATROBE        CLOUDY    45  36  70 SW5       29.95R
WASHINGTON CO* FAIR      45  34  65 CALM      29.97S
$$

PAZ004>006-010>012-017>019-024>028-033>037-041-042-045-046-049>053-261500-
CENTRAL PENNSYLVANIA

CITY           SKY/WX    TMP DP  RH WIND       PRES   REMARKS
BRADFORD       CLOUDY    38  34  85 NW10      29.86R
DUBOIS         CLOUDY    41  34  76 NW9G20    29.88S
CLEARFIELD     CLOUDY    41  35  79 W8G16     29.89S
JOHNSTOWN      CLOUDY    40  33  76 W8        29.88R
ALTOONA          N/A    N/A N/A N/A W15       29.89R
STATE COLLEGE  CLOUDY    43  36  75 NW12      29.88S
WILLIAMSPORT   PTSUNNY   51  38  60 W17G24    29.83S
SELINSGROVE    CLOUDY    51  38  60 NW13G23   29.84S
FT INDIANTOWN  PTSUNNY   53  38  57 W13G23    29.83R
CAPITAL CITY   FAIR      56  39  53 W13       29.84S
HARRISBURG     FAIR      54  39  57 NW14      29.83S
YORK           FAIR      54  40  59 NW8       29.84S
$$

PAZ038>040-043-044-047-048-054-055-060>062-067>071-261500-
EASTERN PENNSYLVANIA

CITY           SKY/WX    TMP DP  RH WIND       PRES   REMARKS
SCRANTON       CLOUDY    52  39  61 NW10      29.77R
MOUNT POCONO   CLOUDY    46  38  73 W17G24    29.74R
ALLENTOWN      CLOUDY    55  40  56 W12G20    29.78R
QUAKERTOWN*    PTSUNNY   52  39  62 W9        29.80R
READING        FAIR      55  42  61 W18G25    29.80R
LANCASTER      FAIR      54  41  61 NW17      29.82R
COATESVILLE    FAIR      52  39  62 NW18      29.83S
POTTSTOWN      FAIR      54  40  59 NW13G20   29.81R
BLUE BELL      FAIR      54  41  62 W8        29.81R
DOYLESTOWN     FAIR      55  41  59 NW13G21   29.78R
WILLOW GROVE   NOT AVBL
NORTH PHILA    FAIR      59  41  51 NW16      29.80R
PHILADELPHIA   FAIR      56  38  50 NW12G21   29.81R
$$




USA.gov is the U.S. government's official web portal to all federal, state and local government web resources and services.